[[{"header":{"parameterUnit":"m.s-1","parameterCategory":1,"la1":30.2991,"la2":30.254,"lo1":-89.0895,"lo2":-89.0444,"dy":0.0017,"dx":0.0017,"nx":28,"ny":28,"refTime":"2025-05-20T09:00:00:Z","depth":0,"parameterNumber":2,"parameterNumberName":"U-component_of_WINDS"},"data":[0,0,0,0,0,0,0,0,0,0,0,0,0,0,0,0,0,0,0,0,0,0,0,0,0,0,0,0,0,0,0,0,0,0,0,0,0,0,0,0,0,0,0,0,0,0,0,0,0,0,0,0,0,0,0,0,0,0,3.4327,3.4329,0,3.4528,3.4531,3.4533,3.4546,3.4543,3.4541,3.4539,3.4747,3.4755,3.4762,0,0,0,0,0,0,0,0,0,0,0,0,0,3.3955,3.3961,3.4327,3.4329,3.4332,3.4528,3.4531,3.4533,3.4546,3.4543,3.4541,3.4538,3.4745,3.4754,3.4763,0,0,0,0,0,0,0,0,0,0,0,0,0,3.4132,3.3964,3.4326,3.4362,3.4367,3.4527,3.4531,3.4534,3.4547,3.4543,3.454,3.4537,3.4742,3.4753,3.4764,3.4903,0,0,3.4799,3.4804,0,0,0,0,0,0,0,0,3.4122,3.4146,3.4354,3.436,3.4366,3.4508,3.4476,3.4658,3.4548,3.4479,3.4539,3.4535,3.4671,3.4688,3.4733,3.4913,3.4922,3.48,3.4807,3.4812,3.4815,0,0,0,0,0,0,0,3.411,3.4137,3.4407,3.4357,3.4364,3.4368,3.4389,3.451,3.4591,3.4484,3.4486,3.4509,3.4673,3.4722,3.4738,3.4925,3.48,3.481,3.4817,3.4822,3.523,3.5233,0,0,0,0,0,0,3.409,3.4127,3.44,3.4413,3.4233,3.4377,3.4401,3.4466,3.459,3.4606,3.4512,3.4509,3.4704,3.4725,3.4745,3.4916,3.4812,3.4823,3.4829,3.5226,3.523,3.5235,0,0,0,0,0,0,3.4082,3.4115,3.4392,3.427,3.4306,3.4388,3.446,3.4472,3.4521,3.4611,3.4626,3.4547,3.4702,3.4729,3.4864,3.4924,3.4828,3.4838,3.5221,3.5227,3.5233,3.5259,0,0,0,0,0,0,3.4072,3.4112,3.4165,3.4271,3.4312,3.4507,3.4464,3.4478,3.454,3.4538,3.4648,3.4662,3.4701,3.4847,3.4875,3.4938,3.4847,3.5216,3.5224,3.5231,3.5253,3.5265,3.5276,0,0,0,0,0,3.4058,3.4165,3.4168,3.4201,3.4381,3.451,3.4534,3.4576,3.4545,3.4599,3.4657,3.4659,3.4913,3.486,3.4893,3.4959,3.5212,3.5222,3.523,3.5248,3.5263,3.5275,0,0,0,0,0,0,3.4064,3.418,3.4184,3.4328,3.4409,3.4512,3.4582,3.459,3.4682,3.4676,3.4726,3.475,3.4883,3.4935,3.4875,3.5101,3.5059,3.5075,3.5062,3.5077,3.5087,3.5072,3.4857,0,0,0,0,0,3.4082,3.4177,3.4273,3.4391,3.4432,3.45,3.4558,3.4583,3.4669,3.4704,3.4772,3.4856,3.4955,3.5019,3.5114,3.5261,3.5285,3.5323,3.5334,3.5343,3.5356,3.5437,3.5455,3.5264,3.5264,3.5264,0,0,3.4121,3.4195,3.4252,3.4394,3.446,3.4558,3.4529,3.4633,3.4706,3.472,3.4851,3.4904,3.5001,3.5142,3.5208,3.5189,3.5414,3.5354,3.536,3.5369,3.5448,3.5466,3.5482,3.527,3.5269,3.5268,0,0,3.424,3.4306,3.4412,3.4478,3.4578,3.4623,3.4648,3.475,3.4785,3.4917,3.493,3.5018,3.5187,3.5255,3.5312,3.5458,3.5462,3.5488,3.5546,3.5624,3.5639,3.5653,3.5704,3.5722,3.55,3.5501,3.5501,0,3.4275,3.4422,3.4465,3.4569,3.4631,3.4648,3.4755,3.4818,3.4944,3.4987,3.4964,3.5176,3.5243,3.54,3.5435,3.5481,3.5512,3.5475,3.5634,3.5648,3.5661,3.5711,3.573,3.5503,3.5503,3.5502,3.5502,0,3.446,3.4562,3.4636,3.4756,3.4827,3.4932,3.4991,3.5057,3.5076,3.5124,3.5258,3.5338,3.5451,3.549,3.5511,3.5651,3.5636,3.5623,3.5582,3.5681,3.5728,3.5748,3.5506,3.5505,3.5505,3.5504,0,0,3.4589,3.4732,3.4758,3.4813,3.4924,3.5004,3.511,3.5219,3.5275,3.5362,3.5452,3.5594,3.5583,3.5648,3.5676,3.5745,3.5855,3.5724,3.5727,3.5745,3.6014,3.6022,3.6044,3.5859,3.5863,3.5866,3.6006,0,3.4721,3.4909,3.4951,3.5113,3.5208,3.5225,3.5317,3.5396,3.5443,3.553,3.5583,3.5683,3.566,3.5699,3.5769,3.5827,3.5909,3.5817,3.5944,3.5948,3.5918,3.6069,3.6078,3.6206,3.6024,3.6028,3.603,0,3.4899,3.4989,3.5161,3.5259,3.5301,3.5383,3.5486,3.5569,3.5659,3.5688,3.576,3.5782,3.5893,3.5847,3.6001,3.5938,3.5992,3.6029,3.6035,3.6048,3.5994,3.6085,3.6248,3.6267,3.606,3.6057,3.6055,0,3.4975,3.5139,3.5263,3.531,3.5428,3.5485,3.5537,3.5623,3.5686,3.5777,3.5818,3.5921,3.5977,3.6056,3.6105,3.6067,3.6256,3.6213,3.6283,3.6282,3.6322,3.6318,3.6495,3.6358,3.6357,3.6357,3.6356,0,3.5117,3.5222,3.5299,3.5375,3.5492,3.5539,3.5654,3.5706,3.5783,3.587,3.5892,3.5973,3.6032,3.6122,3.6161,3.6282,3.6308,3.6335,3.6344,3.6333,3.6329,3.6369,3.6361,3.6362,3.6361,3.636,3.6359,0,3.5222,3.5278,3.5414,3.5514,3.5542,3.5624,3.5711,3.5785,3.5833,3.5942,3.5971,3.6045,3.6152,3.6208,3.6342,3.6368,3.6505,3.6509,3.6474,3.6478,3.6544,3.6537,3.6752,3.6782,3.6625,3.6626,3.6627,0,3.5309,3.5389,3.5498,3.5558,3.561,3.5706,3.577,3.582,3.5885,3.5993,3.6055,3.6163,3.6251,3.6421,3.6488,3.659,3.6597,3.6665,3.6612,3.6598,3.6597,3.6592,3.66,3.6674,3.6676,3.6677,3.6678,0,3.5457,3.548,3.5571,3.5673,3.5748,3.583,3.5911,3.5959,3.6022,3.6095,3.6204,3.6272,3.6408,3.6515,3.6622,3.6677,3.6688,3.6694,3.6715,3.6705,3.6681,3.6694,3.6499,3.6689,3.6688,3.6687,3.6686,3.6686,3.5555,3.5627,3.5715,3.5816,3.5882,3.5957,3.6032,3.6089,3.618,3.6294,3.6318,3.6433,3.6521,3.6666,3.6723,3.6814,3.6801,3.6832,3.684,3.6847,3.6849,3.6666,3.6834,3.6834,3.6834,3.6834,3.6833,0,3.5704,3.5761,3.5853,3.5966,3.6045,3.6048,3.6138,3.6204,3.6305,3.6385,3.6472,3.6597,3.67,3.6775,3.6881,3.6939,3.6947,3.6965,3.6961,3.6974,3.6856,3.6826,3.6957,3.6957,3.6957,3.6957,3.6957,3.6957,3.5791,3.5913,3.5946,3.6102,3.6158,3.627,3.6321,3.6391,3.6456,3.6594,3.668,3.6727,3.6806,3.6917,3.7012,3.7032,3.707,3.7087,3.7107,3.6995,3.6982,3.697,3.6942,3.7095,3.7096,3.7218,3.7219,3.722]},{"header":{"parameterUnit":"m.s-1","parameterCategory":1,"la1":30.2991,"la2":30.254,"lo1":-89.0895,"lo2":-89.0444,"dy":0.0017,"dx":0.0017,"nx":28,"ny":28,"refTime":"2025-05-20T09:00:00:Z","depth":0,"parameterNumber":3,"parameterNumberName":"V-component_of_WINDS"},"data":[0,0,0,0,0,0,0,0,0,0,0,0,0,0,0,0,0,0,0,0,0,0,0,0,0,0,0,0,0,0,0,0,0,0,0,0,0,0,0,0,0,0,0,0,0,0,0,0,0,0,0,0,0,0,0,0,0,0,0.7408,0.7408,0,0.7394,0.7394,0.7394,0.7379,0.7379,0.7378,0.7378,0.7365,0.7364,0.7364,0,0,0,0,0,0,0,0,0,0,0,0,0,0.7423,0.7423,0.7408,0.7408,0.7408,0.7394,0.7394,0.7393,0.7379,0.7379,0.7378,0.7378,0.7365,0.7364,0.7364,0,0,0,0,0,0,0,0,0,0,0,0,0,0.7413,0.7423,0.7408,0.7399,0.7398,0.7394,0.7394,0.7393,0.7379,0.7379,0.7378,0.7378,0.7365,0.7364,0.7364,0.7369,0,0,0.7363,0.7363,0,0,0,0,0,0,0,0,0.7414,0.7413,0.74,0.7399,0.7398,0.7388,0.7394,0.7385,0.7379,0.7386,0.7378,0.7378,0.7373,0.7372,0.737,0.7368,0.7368,0.7363,0.7363,0.7363,0.7363,0,0,0,0,0,0,0,0.7415,0.7413,0.7402,0.74,0.7399,0.7395,0.7394,0.7392,0.7381,0.7385,0.7384,0.7383,0.7372,0.737,0.7369,0.7367,0.7363,0.7363,0.7363,0.7363,0.7369,0.7369,0,0,0,0,0,0,0.7417,0.7414,0.7403,0.7402,0.7405,0.7395,0.7393,0.7391,0.7381,0.7379,0.7383,0.7382,0.7371,0.737,0.7369,0.7374,0.7363,0.7363,0.7363,0.7368,0.7369,0.7369,0,0,0,0,0,0,0.7417,0.7416,0.7403,0.7408,0.7406,0.7395,0.7393,0.7391,0.7389,0.7379,0.7377,0.7383,0.737,0.7369,0.7369,0.7373,0.7363,0.7362,0.7368,0.7369,0.7369,0.7383,0,0,0,0,0,0,0.7417,0.7416,0.7418,0.7408,0.7406,0.7404,0.7393,0.7391,0.7389,0.7387,0.7379,0.7377,0.737,0.7369,0.7369,0.7372,0.7362,0.7368,0.7368,0.7369,0.7382,0.7384,0.7386,0,0,0,0,0,0.7418,0.7422,0.7418,0.7416,0.7407,0.7404,0.7403,0.7394,0.7389,0.7391,0.7384,0.7377,0.7372,0.7369,0.7368,0.7372,0.7367,0.7368,0.7369,0.7382,0.7384,0.7386,0,0,0,0,0,0,0.7433,0.7421,0.7416,0.7417,0.7412,0.7401,0.7403,0.7397,0.7393,0.7392,0.7381,0.738,0.7381,0.7376,0.7373,0.7376,0.7369,0.7369,0.7379,0.7381,0.7383,0.7384,0.7362,0,0,0,0,0,0.7437,0.7435,0.7424,0.7426,0.7424,0.7414,0.7412,0.7406,0.74,0.7398,0.7391,0.7386,0.7383,0.7382,0.7379,0.7381,0.7379,0.7384,0.7385,0.7387,0.7387,0.7388,0.739,0.7371,0.7371,0.7371,0,0,0.7444,0.7437,0.7436,0.7429,0.7424,0.7423,0.7412,0.7411,0.741,0.7398,0.7397,0.7392,0.7386,0.7387,0.7387,0.7383,0.7392,0.7387,0.7389,0.7389,0.7389,0.7391,0.7393,0.7372,0.7372,0.7372,0,0,0.7456,0.7451,0.7452,0.7447,0.744,0.7433,0.7433,0.7424,0.742,0.7419,0.741,0.7408,0.7404,0.74,0.7397,0.7407,0.7401,0.7406,0.7415,0.7416,0.7418,0.7419,0.7423,0.7424,0.7407,0.7407,0.7407,0,0.7467,0.7463,0.7453,0.7453,0.745,0.7438,0.7439,0.7435,0.7427,0.7426,0.7421,0.7415,0.741,0.741,0.7412,0.741,0.7411,0.7407,0.7418,0.7419,0.742,0.7424,0.7425,0.7408,0.7408,0.7407,0.7407,0,0.7476,0.7474,0.7476,0.7468,0.7466,0.7466,0.7456,0.7454,0.7448,0.7442,0.7441,0.7434,0.7429,0.7429,0.7423,0.7428,0.7426,0.742,0.7413,0.7423,0.7426,0.7428,0.7409,0.7408,0.7408,0.7408,0,0,0.7499,0.7485,0.7486,0.7482,0.7473,0.7471,0.7471,0.7466,0.7464,0.7459,0.7459,0.7455,0.7449,0.7446,0.7439,0.744,0.7449,0.7434,0.7434,0.7438,0.7454,0.7459,0.7461,0.7444,0.7445,0.7445,0.7455,0,0.751,0.7508,0.7499,0.75,0.7498,0.7487,0.7487,0.7481,0.7475,0.7473,0.7466,0.7464,0.7456,0.7454,0.7455,0.7448,0.7452,0.7447,0.7444,0.7444,0.7447,0.7463,0.7468,0.7478,0.7456,0.7456,0.7457,0,0.7523,0.7518,0.7519,0.7509,0.7508,0.7508,0.7503,0.75,0.7493,0.7489,0.7485,0.7478,0.7477,0.7469,0.7468,0.7464,0.7463,0.7459,0.7459,0.7459,0.7452,0.7463,0.7481,0.7483,0.7458,0.7458,0.7458,0,0.754,0.7533,0.7533,0.753,0.7519,0.7519,0.7514,0.7507,0.7504,0.75,0.7498,0.7493,0.7491,0.7487,0.7479,0.7474,0.7478,0.747,0.7475,0.7475,0.7477,0.7477,0.7495,0.7475,0.7475,0.7475,0.7475,0,0.7553,0.7554,0.754,0.754,0.7541,0.753,0.7531,0.7526,0.7519,0.7518,0.7508,0.7507,0.7495,0.7493,0.7486,0.7486,0.7485,0.7481,0.748,0.7483,0.7483,0.7482,0.7481,0.7475,0.7475,0.7475,0.7475,0,0.7572,0.7563,0.7562,0.7551,0.7548,0.7549,0.754,0.754,0.7533,0.7531,0.753,0.752,0.7516,0.7507,0.7501,0.7497,0.7499,0.7495,0.7501,0.75,0.7506,0.7505,0.7524,0.7526,0.7504,0.7504,0.7504,0,0.7582,0.7583,0.7572,0.757,0.7565,0.7563,0.756,0.7549,0.7547,0.7539,0.7539,0.7535,0.7531,0.7526,0.7518,0.7514,0.7511,0.7517,0.751,0.7513,0.7511,0.7511,0.7511,0.7519,0.7519,0.752,0.752,0,0.7601,0.7596,0.7592,0.7586,0.7583,0.7578,0.7573,0.7572,0.756,0.7558,0.7554,0.7551,0.7545,0.7541,0.7536,0.7531,0.7523,0.7522,0.7523,0.7526,0.753,0.7528,0.7506,0.7522,0.7522,0.7521,0.7521,0.7521,0.7615,0.7615,0.7607,0.7604,0.7598,0.7593,0.7592,0.7585,0.7582,0.7576,0.757,0.7567,0.7559,0.7551,0.7547,0.7544,0.754,0.7542,0.7542,0.7543,0.7544,0.753,0.7543,0.7543,0.7543,0.7543,0.7543,0,0.7634,0.7628,0.7624,0.7617,0.7614,0.7606,0.76,0.7598,0.7595,0.7589,0.7585,0.7581,0.7577,0.7568,0.7564,0.7563,0.756,0.7562,0.7563,0.7562,0.7548,0.7548,0.7565,0.7565,0.7565,0.7565,0.7565,0.7565,0.7643,0.7642,0.7636,0.7633,0.7627,0.7624,0.7621,0.7616,0.7611,0.7607,0.7603,0.7597,0.759,0.7585,0.7581,0.7578,0.7577,0.7581,0.7578,0.7565,0.7563,0.7561,0.7561,0.7581,0.7581,0.7592,0.7592,0.7592]}]]